STARLINK-11394, 62218

Orbit data source: Space-Track

STARLINK-11394, 62218 is a payload satellite owned by SpaceX/Seattle (US) in LEO that was launched on Thu, 05 Dec 2024 UTC via an FALCON 9 launch vehicle from the Air Force Western Test Range (AFWTR). Payload-class satellites include a variety of spacecraft equipped with specific instruments for various scientific and technological missions. These include communications satellites like Starlink; space stations such as the ISS; scientific satellites like the Hubble; Earth observation satellites from companies like Planet Labs, Umbra, and HawkEye 360; GPS; miniature CubeSats for education and research; and military/defense satellites.

Loading next visibility...
Identifier
62218, 2024-231A
Orbit
LEO
Last TLE update
6 hours ago
Origin
Manufacturer
SpaceX/Seattle
Mission
Operational Commercial Communications
Bus & Motor
STARLINK V2M, Unknown motor
Mass
730 kg wet, ~700 kg dry
Launch date (UTC)
2024-12-05 (7 months ago)
Launch vehicle
FALCON 9
Launch site
Air Force Western Test Range (AFWTR)
Object type
Payload
Rocket body
Debris
Shape & HBR
Box + 2 Pan, 29 m
Radar Cross Section
36.964 m², Large (>1 m²)

Expand to show TLE details & history

TLE from 6 hours ago
0 STARLINK-11394
1 62218U 24231A   25182.91082456  .00190619  00000-0  15389-2 0  9998
2 62218  53.1565 257.5310 0000801  89.0393 271.0717 15.69764028 34022
Epoch: 2025-07-01T21:51Z
TLE epoch observation values (Epoch: 2025-07-01T21:51:35.241Z)
Latitude
-0.00002°
Longitude
9.43465°
Altitude
360.477 km
Speed
7.694 km/s
True Right ascension
17h 10m 07s
True Declination
0° 00' 00"
Sunlit
Object was in full shadow at epoch
Visualization orbit readout
Latitude
-19.64983°
Longitude
-7.22861°
Altitude
364.977 km
Speed
7.69 km/s
Apparent Right ascension
17h 36m 26s
Apparent Declination
-75° 33' 40"
Sunlit
Object is in full shadow
Visualization observer readout
Local Sidereal Time
15:33:19
Azimuth
171.751° S
Elevation
-27.2°
Doppler factor
1
Orbital elements
Apogee altitude
360.373 km
Perigee altitude
359.294 km
Semi-major axis
6,737.97 km
Eccentricity
0.00008
Inclination
53.1565°
RAAN
257.531°
Arg. of periapsis
89.0393°
True anomaly
Unknown
Mean anomaly
271.0717°
Eccentric anomaly
Unknown
Mean motion
3.92419 °/min
Orbital period
91.74 mins
BSTAR
0.0015389
Loading maneuver chart data...
Loading SW <> Apogee altitude chart data...
Loading historical data...
Loading historical data...
Loading historical data...
Loading historical data...
Loading historical data...
Loading historical data...
Loading historical data...

STARLINK-11394 Visibility forecast

Observer location: undefined°, undefined°

Span
Click to sort rows by Start time (UTC) header in descending order
Start Az.
Max El. time (UTC)
Max El. Az.
Max El.
End time (UTC)
End Az.
4 mins2025-07-02 07:12:00.311Z183.206° SSW2025-07-02 07:14:00.311Z120.959° SE24.47°2025-07-02 07:16:00.311Z74.474° E
4 mins2025-07-02 15:12:00.311Z277.488° WNW2025-07-02 15:13:00.311Z248.677° W26.603°2025-07-02 15:16:00.311Z161.823° S
|